| time (UTC) | temp F | wind direction | speed knots | gust knots | rain 1hr in | rain 24hr in | rain mn in | humidity % | barometer mb |
| 20260831071004 | 72 | 158 | 4.3 | 7.0 | 0.00 | 0.33 | 0.00 | 86 | 1013.7 |
| 20260831065504 | 73 | 147 | 4.3 | 8.7 | 0.00 | 0.33 | 0.00 | 85 | 1013.8 |
| 20260831065004 | 73 | 144 | 5.2 | 7.8 | 0.00 | 0.33 | 0.00 | 85 | 1013.9 |
| 20260831064504 | 73 | 142 | 5.2 | 7.0 | 0.00 | 0.33 | 0.00 | 86 | 1013.9 |
| 20260831064003 | 73 | 135 | 4.3 | 7.0 | 0.00 | 0.33 | 0.00 | 86 | 1013.9 |
| 20260831063004 | 73 | 130 | 4.3 | 7.8 | 0.00 | 0.33 | 0.00 | 86 | 1014.1 |
| 20260831061504 | 73 | 139 | 6.1 | 8.7 | 0.00 | 0.33 | 0.00 | 86 | 1014.1 |
| 20260831061004 | 73 | 135 | 6.1 | 7.8 | 0.00 | 0.33 | 0.00 | 86 | 1014.2 |
| 20260831055504 | 73 | 137 | 4.3 | 7.0 | 0.00 | 0.33 | 0.00 | 87 | 1014.1 |
| 20260831054004 | 73 | 134 | 3.5 | 7.0 | 0.00 | 0.33 | 0.00 | 87 | 1014.1 |
| 20260831053004 | 73 | 140 | 5.2 | 7.8 | 0.00 | 0.33 | 0.00 | 88 | 1014.2 |
| 20260831052503 | 73 | 133 | 2.6 | 2.6 | 0.00 | 0.33 | 0.00 | 88 | 1014.1 |
| 20260831051504 | 73 | 146 | 3.5 | 6.1 | 0.00 | 0.33 | 0.00 | 88 | 1014.2 |
| 20260831051004 | 73 | 146 | 4.3 | 6.1 | 0.00 | 0.33 | 0.00 | 88 | 1014.1 |
| 20260831050504 | 74 | 133 | 5.2 | 7.8 | 0.00 | 0.33 | 0.00 | 88 | 1014.1 |
| 20260831050004 | 73 | 143 | 4.3 | 10.4 | 0.00 | 0.33 | 0.00 | 88 | 1014.2 |
| 20260831044504 | 73 | 145 | 4.3 | 7.0 | 0.00 | 0.33 | 0.33 | 89 | 1014.2 |
| 20260831043006 | 73 | 133 | 4.3 | 6.1 | 0.00 | 0.33 | 0.33 | 90 | 1014.2 |
| 20260831041006 | 73 | 143 | 4.3 | 7.8 | 0.00 | 0.33 | 0.33 | 90 | 1014.2 |
| 20260831040005 | 73 | 134 | 6.1 | 10.4 | 0.00 | 0.33 | 0.33 | 90 | 1014.2 |
| 20260831035506 | 73 | 132 | 6.1 | 8.7 | 0.00 | 0.33 | 0.33 | 90 | 1014.2 |
| 20260831035006 | 73 | 135 | 5.2 | 7.8 | 0.00 | 0.33 | 0.33 | 90 | 1014.4 |
| 20260831034505 | 73 | 134 | 6.1 | 10.4 | 0.00 | 0.33 | 0.33 | 91 | 1014.5 |
| 20260831034006 | 73 | 138 | 4.3 | 10.4 | 0.00 | 0.33 | 0.33 | 91 | 1014.5 |
| 20260831033505 | 73 | 123 | 7.0 | 8.7 | 0.00 | 0.33 | 0.33 | 91 | 1014.4 |
| 20260831032506 | 72 | 127 | 5.2 | 7.8 | 0.00 | 0.33 | 0.33 | 92 | 1014.7 |
| 20260831031505 | 72 | 127 | 5.2 | 7.8 | 0.00 | 0.33 | 0.33 | 92 | 1014.8 |
| 20260831031006 | 72 | 125 | 5.2 | 7.0 | 0.00 | 0.33 | 0.33 | 92 | 1014.8 |
| 20260831025505 | 72 | 119 | 2.6 | 5.2 | 0.00 | 0.33 | 0.33 | 92 | 1015.0 |
| 20260831024006 | 72 | 95 | 4.3 | 6.1 | 0.00 | 0.34 | 0.33 | 92 | 1014.9 |
| 20260831021505 | 73 | 103 | 4.3 | 5.2 | 0.00 | 0.35 | 0.33 | 90 | 1014.9 |
| 20260831021005 | 73 | 108 | 5.2 | 7.8 | 0.00 | 0.35 | 0.33 | 90 | 1014.8 |
| 20260831013505 | 73 | 90 | 5.2 | 7.0 | 0.00 | 0.35 | 0.33 | 90 | 1014.6 |
| 20260831013006 | 73 | 83 | 4.3 | 6.1 | 0.00 | 0.35 | 0.33 | 90 | 1014.7 |
| 20260831012505 | 73 | 87 | 4.3 | 5.2 | 0.00 | 0.35 | 0.33 | 89 | 1014.6 |
| 20260831012005 | 73 | 97 | 3.5 | 6.1 | 0.00 | 0.35 | 0.33 | 89 | 1014.7 |
| 20260831011506 | 74 | 107 | 1.7 | 2.6 | 0.00 | 0.35 | 0.33 | 88 | 1014.7 |
| 20260831011005 | 74 | 103 | 2.6 | 5.2 | 0.00 | 0.35 | 0.33 | 88 | 1014.6 |
| 20260831004006 | 74 | 112 | 6.1 | 10.4 | 0.00 | 0.35 | 0.33 | 87 | 1014.2 |
| 20260831003505 | 74 | 103 | 7.0 | 8.7 | 0.00 | 0.35 | 0.33 | 87 | 1014.2 |
| 20260831001006 | 75 | 105 | 6.1 | 10.4 | 0.00 | 0.35 | 0.33 | 87 | 1014.5 |
| 20260831000505 | 75 | 109 | 6.1 | 7.8 | 0.00 | 0.35 | 0.33 | 87 | 1014.7 |
| 20260830235505 | 75 | 95 | 5.2 | 8.7 | 0.00 | 0.35 | 0.33 | 87 | 1014.7 |
| 20260830235006 | 75 | 96 | 5.2 | 7.8 | 0.00 | 0.35 | 0.33 | 88 | 1014.6 |
| 20260830233005 | 75 | 89 | 2.6 | 5.2 | 0.00 | 0.35 | 0.33 | 89 | 1014.7 |
| 20260830232505 | 75 | 86 | 2.6 | 5.2 | 0.00 | 0.35 | 0.33 | 89 | 1014.6 |
| 20260830231505 | 75 | 92 | 1.7 | 2.6 | 0.00 | 0.35 | 0.33 | 89 | 1014.7 |
| 20260830230505 | 75 | 63 | 1.7 | 2.6 | 0.00 | 0.35 | 0.33 | 89 | 1014.9 |
| 20260830225505 | 75 | 117 | 0.9 | 1.7 | 0.00 | 0.35 | 0.33 | 88 | 1014.9 |
| 20260830224505 | 75 | 117 | 1.7 | 2.6 | 0.00 | 0.35 | 0.33 | 88 | 1014.7 |
| 20260830224005 | 75 | 163 | 0.9 | 1.7 | 0.00 | 0.35 | 0.33 | 88 | 1014.8 |
| 20260830223505 | 75 | 163 | 0.9 | 1.7 | 0.00 | 0.35 | 0.33 | 87 | 1014.9 |
| 20260830223005 | 75 | 163 | 0.9 | 1.7 | 0.00 | 0.35 | 0.33 | 87 | 1015.0 |
| 20260830222505 | 75 | 163 | 0.9 | 2.6 | 0.00 | 0.35 | 0.33 | 88 | 1015.0 |
| 20260830222005 | 75 | 147 | 1.7 | 2.6 | 0.00 | 0.35 | 0.33 | 88 | 1015.0 |
| 20260830221505 | 75 | 158 | 1.7 | 2.6 | 0.00 | 0.35 | 0.33 | 88 | 1014.9 |
| 20260830221006 | 75 | 152 | 0.9 | 1.7 | 0.00 | 0.35 | 0.33 | 88 | 1015.0 |
| 20260830215006 | 74 | 151 | 3.5 | 6.1 | 0.00 | 0.35 | 0.33 | 88 | 1014.8 |
| 20260830214005 | 73 | 154 | 3.5 | 6.1 | 0.01 | 0.35 | 0.33 | 91 | 1014.6 |
| 20260830213505 | 73 | 136 | 4.3 | 7.0 | 0.01 | 0.35 | 0.33 | 90 | 1014.5 |
| 20260830213006 | 73 | 143 | 6.1 | 7.8 | 0.02 | 0.35 | 0.33 | 91 | 1014.5 |
| 20260830212005 | 72 | 137 | 5.2 | 7.8 | 0.05 | 0.35 | 0.33 | 91 | 1014.6 |
| 20260830211005 | 72 | 122 | 4.3 | 8.7 | 0.12 | 0.35 | 0.33 | 91 | 1014.7 |
| 20260830210006 | 72 | 141 | 3.5 | 7.8 | 0.13 | 0.35 | 0.33 | 92 | 1014.9 |
| 20260830203505 | 71 | 147 | 10.4 | 15.6 | 0.18 | 0.34 | 0.32 | 92 | 1013.7 |
| 20260830202505 | 71 | 128 | 11.3 | 13.9 | 0.20 | 0.32 | 0.30 | 92 | 1014.1 |
| 20260830200505 | 71 | 145 | 6.1 | 10.4 | 0.12 | 0.23 | 0.21 | 92 | 1015.7 |
| 20260830200005 | 71 | 154 | 5.2 | 10.4 | 0.11 | 0.22 | 0.20 | 91 | 1016.0 |
| 20260830195005 | 71 | 141 | 6.1 | 8.7 | 0.08 | 0.19 | 0.17 | 91 | 1016.1 |
| 20260830193505 | 71 | 181 | 2.6 | 2.6 | 0.05 | 0.16 | 0.14 | 91 | 1016.7 |
| 20260830192504 | 72 | 177 | 2.6 | 2.6 | 0.01 | 0.12 | 0.10 | 90 | 1016.5 |
| 20260830192005 | 72 | 155 | 0.9 | 2.6 | 0.01 | 0.12 | 0.10 | 90 | 1016.1 |
| 20260830191505 | 72 | 173 | 1.7 | 2.6 | 0.00 | 0.11 | 0.09 | 90 | 1016.4 |
| 20260830191005 | 72 | 195 | 2.6 | 2.6 | 0.00 | 0.11 | 0.09 | 90 | 1016.6 |
| 20260830190505 | 72 | 184 | 2.6 | 6.1 | 0.00 | 0.11 | 0.09 | 90 | 1016.4 |
| 20260830185504 | 72 | 182 | 3.5 | 5.2 | 0.01 | 0.11 | 0.09 | 89 | 1016.1 |
| 20260830183504 | 72 | 158 | 1.7 | 6.1 | 0.02 | 0.12 | 0.09 | 90 | 1016.4 |
| 20260830182505 | 72 | 150 | 2.6 | 5.2 | 0.03 | 0.12 | 0.09 | 91 | 1015.8 |
| 20260830182005 | 72 | 101 | 3.5 | 6.1 | 0.04 | 0.12 | 0.09 | 91 | 1015.6 |
| 20260830181005 | 72 | 120 | 4.3 | 7.0 | 0.04 | 0.12 | 0.09 | 91 | 1015.7 |
| 20260830180504 | 71 | 138 | 3.5 | 5.2 | 0.06 | 0.13 | 0.09 | 91 | 1016.1 |
| 20260830175005 | 71 | 191 | 2.6 | 2.6 | 0.05 | 0.12 | 0.08 | 91 | 1016.6 |
| 20260830174504 | 71 | 184 | 2.6 | 2.6 | 0.07 | 0.12 | 0.08 | 91 | 1016.4 |
| 20260830173505 | 71 | 214 | 0.9 | 2.6 | 0.07 | 0.12 | 0.07 | 91 | 1016.3 |
| 20260830173004 | 71 | 269 | 0.9 | 1.7 | 0.07 | 0.13 | 0.07 | 91 | 1016.3 |
| 20260830172505 | 71 | 269 | 0.9 | 2.6 | 0.06 | 0.13 | 0.06 | 90 | 1016.3 |
| 20260830172005 | 71 | 263 | 1.7 | 2.6 | 0.05 | 0.12 | 0.05 | 90 | 1016.4 |
| 20260830171504 | 71 | 17 | 0.9 | 1.7 | 0.05 | 0.13 | 0.05 | 90 | 1016.1 |
| 20260830170004 | 72 | 140 | 0.9 | 2.6 | 0.03 | 0.12 | 0.03 | 88 | 1016.0 |
| 20260830164005 | 74 | 202 | 4.3 | 7.8 | 0.01 | 0.11 | 0.01 | 79 | 1015.5 |
| 20260830162504 | 76 | 202 | 5.2 | 10.4 | 0.00 | 0.12 | 0.00 | 75 | 1015.5 |
| 20260830160505 | 78 | 190 | 5.2 | 8.7 | 0.00 | 0.12 | 0.00 | 72 | 1015.3 |
| 20260830160004 | 78 | 202 | 8.7 | 11.3 | 0.00 | 0.12 | 0.00 | 70 | 1015.0 |
| 20260830155504 | 79 | 188 | 6.1 | 13.0 | 0.00 | 0.13 | 0.00 | 70 | 1014.8 |
| 20260830155004 | 80 | 201 | 7.8 | 13.0 | 0.00 | 0.13 | 0.00 | 68 | 1014.8 |
| 20260830154005 | 80 | 194 | 8.7 | 13.0 | 0.00 | 0.13 | 0.00 | 68 | 1014.3 |
| 20260830153005 | 79 | 183 | 7.8 | 13.9 | 0.00 | 0.13 | 0.00 | 69 | 1014.3 |
| 20260830152005 | 79 | 171 | 6.1 | 12.2 | 0.00 | 0.13 | 0.00 | 69 | 1014.2 |
| 20260830150505 | 78 | 201 | 6.1 | 13.9 | 0.00 | 0.13 | 0.00 | 72 | 1014.5 |
| 20260830150004 | 77 | 160 | 5.2 | 7.8 | 0.00 | 0.13 | 0.00 | 72 | 1014.4 |
| 20260830145505 | 77 | 207 | 5.2 | 8.7 | 0.00 | 0.13 | 0.00 | 71 | 1014.4 |
| 20260830143504 | 77 | 200 | 6.1 | 12.2 | 0.00 | 0.13 | 0.00 | 71 | 1014.2 |
| 20260830143005 | 76 | 184 | 8.7 | 13.9 | 0.00 | 0.13 | 0.00 | 73 | 1014.1 |
| 20260830142504 | 75 | 191 | 8.7 | 13.0 | 0.00 | 0.13 | 0.00 | 74 | 1014.0 |
| 20260830142004 | 74 | 177 | 5.2 | 11.3 | 0.00 | 0.13 | 0.00 | 73 | 1013.9 |
| 20260830141005 | 74 | 173 | 7.8 | 12.2 | 0.00 | 0.13 | 0.00 | 75 | 1013.9 |
| 20260830140504 | 74 | 172 | 7.8 | 13.9 | 0.00 | 0.13 | 0.00 | 75 | 1013.8 |
| 20260830135505 | 74 | 168 | 5.2 | 12.2 | 0.00 | 0.13 | 0.00 | 75 | 1013.6 |
| 20260830134004 | 73 | 176 | 5.2 | 10.4 | 0.00 | 0.13 | 0.00 | 77 | 1013.8 |
| 20260830132004 | 71 | 178 | 3.5 | 7.0 | 0.00 | 0.13 | 0.00 | 78 | 1013.9 |
| 20260830131004 | 71 | 180 | 5.2 | 10.4 | 0.00 | 0.13 | 0.00 | 78 | 1014.1 |
| 20260830130005 | 71 | 180 | 4.3 | 7.8 | 0.00 | 0.13 | 0.00 | 77 | 1014.1 |
| 20260830125004 | 71 | 180 | 5.2 | 10.4 | 0.00 | 0.13 | 0.00 | 78 | 1014.0 |
| 20260830123004 | 71 | 165 | 4.3 | 6.1 | 0.00 | 0.13 | 0.00 | 79 | 1014.3 |
| 20260830120004 | 70 | 192 | 2.6 | 4.3 | 0.00 | 0.13 | 0.00 | 79 | 1014.2 |
| 20260830114504 | 69 | 174 | 3.5 | 5.2 | 0.00 | 0.13 | 0.00 | 80 | 1014.0 |
| 20260830114004 | 70 | 168 | 2.6 | 5.2 | 0.00 | 0.13 | 0.00 | 79 | 1014.1 |
| 20260830113505 | 70 | 169 | 2.6 | 5.2 | 0.00 | 0.13 | 0.00 | 79 | 1014.1 |
| 20260830112504 | 70 | 169 | 2.6 | 5.2 | 0.00 | 0.13 | 0.00 | 79 | 1013.9 |
| 20260830111504 | 70 | 175 | 2.6 | 5.2 | 0.00 | 0.13 | 0.00 | 78 | 1013.9 |
| 20260830105504 | 70 | 185 | 1.7 | 2.6 | 0.00 | 0.13 | 0.00 | 79 | 1013.9 |
| 20260830104004 | 70 | 191 | 2.6 | 6.1 | 0.00 | 0.13 | 0.00 | 79 | 1014.1 |
| 20260830102504 | 70 | 191 | 4.3 | 7.8 | 0.00 | 0.13 | 0.00 | 79 | 1014.2 |
| 20260830102005 | 70 | 178 | 5.2 | 7.8 | 0.00 | 0.13 | 0.00 | 79 | 1014.1 |
| 20260830101005 | 70 | 180 | 4.3 | 7.8 | 0.00 | 0.13 | 0.00 | 79 | 1014.0 |
| 20260830100504 | 70 | 170 | 4.3 | 7.8 | 0.00 | 0.13 | 0.00 | 79 | 1014.1 |
| 20260830095504 | 71 | 170 | 5.2 | 8.7 | 0.00 | 0.13 | 0.00 | 79 | 1014.2 |
| 20260830094004 | 71 | 189 | 4.3 | 7.0 | 0.00 | 0.13 | 0.00 | 78 | 1014.2 |
| 20260830093504 | 71 | 178 | 4.3 | 7.8 | 0.00 | 0.13 | 0.00 | 78 | 1014.3 |
| 20260830091004 | 71 | 176 | 5.2 | 8.7 | 0.00 | 0.13 | 0.00 | 78 | 1014.4 |
| 20260830085505 | 71 | 176 | 5.2 | 10.4 | 0.00 | 0.13 | 0.00 | 77 | 1014.4 |
| 20260830084504 | 72 | 168 | 6.1 | 10.4 | 0.00 | 0.13 | 0.00 | 77 | 1014.3 |
| 20260830084004 | 72 | 171 | 6.1 | 8.7 | 0.00 | 0.13 | 0.00 | 77 | 1014.4 |
| 20260830082504 | 72 | 170 | 6.1 | 10.4 | 0.00 | 0.13 | 0.00 | 77 | 1014.3 |
| 20260830082004 | 72 | 169 | 6.1 | 10.4 | 0.00 | 0.13 | 0.00 | 77 | 1014.3 |
| 20260830080504 | 71 | 181 | 5.2 | 10.4 | 0.00 | 0.13 | 0.00 | 79 | 1014.3 |
| 20260830075004 | 71 | 181 | 4.3 | 6.1 | 0.00 | 0.13 | 0.00 | 81 | 1014.2 |
| 20260830074503 | 70 | 164 | 2.6 | 5.2 | 0.00 | 0.13 | 0.00 | 82 | 1014.2 |
| 20260830074004 | 70 | 163 | 3.5 | 7.0 | 0.00 | 0.13 | 0.00 | 82 | 1014.2 |